Wind_Speed
104 105 104 101 99 98 96 93 90 89 87 87 84 80 77 81 75 68 69 67 60 67 71 74 72 80 83 88 91 89 76 72 85 85 90 94 85 79 61 50 43 41 23
105 105 105 103 101 100 98 96 94 91 90 89 88 83 76 80 80 75 77 81 73 76 88 85 82 88 95 91 92 77 70 83 89 88 94 92 86 72 53 45 37 36 22
104 107 107 105 104 101 100 98 97 95 91 89 87 85 83 85 93 88 87 86 87 80 87 86 89 91 92 84 80 72 84 87 90 92 93 88 81 60 47 40 38 34 22
94 102 106 107 105 106 103 102 99 97 95 92 89 88 84 85 90 99 90 93 95 93 92 89 88 91 87 81 75 80 86 89 92 90 91 88 69 52 42 39 38 33 21
88 94 97 102 105 107 106 104 103 100 97 93 90 89 87 86 84 88 90 94 92 94 89 90 94 83 82 79 79 85 88 93 94 94 92 74 54 44 38 36 35 28 22
90 91 92 93 98 101 104 105 103 100 96 91 89 87 88 86 84 87 90 91 93 88 88 87 94 84 88 87 81 86 90 87 91 86 77 60 48 39 39 38 33 25 22
83 84 89 89 87 91 95 96 98 100 102 93 88 85 82 79 79 78 84 86 87 87 83 84 86 80 86 83 84 84 81 78 76 78 61 50 41 34 34 33 31 25 23
75 76 78 83 83 80 83 86 89 95 95 97 92 87 81 75 71 68 67 65 69 76 78 80 82 85 78 80 83 83 81 78 77 65 51 39 34 32 31 31 27 21 18
65 66 67 74 77 76 79 77 83 85 86 89 90 96 86 77 70 64 56 49 53 59 64 63 69 78 79 83 85 80 78 76 65 52 38 34 33 31 29 27 22 19 19
54 54 55 59 58 58 63 73 77 79 78 77 80 93 88 79 72 64 44 45 47 52 60 66 73 76 82 84 78 81 75 65 50 40 36 36 34 29 25 24 20 18 17
39 41 42 44 46 48 51 55 64 69 69 74 73 81 98 81 74 60 53 50 54 62 66 70 75 81 79 78 80 71 64 51 40 39 39 37 29 26 22 21 18 17 16
26 29 30 32 34 35 39 43 52 60 64 68 72 71 78 85 79 64 58 60 61 66 71 74 78 78 76 77 70 61 49 43 38 39 37 28 24 23 22 19 16 17 15
14 17 19 21 26 31 35 41 48 52 54 58 57 61 73 76 70 69 67 67 68 72 80 76 77 77 76 66 55 47 44 41 38 30 31 26 27 21 17 16 16 16 18
9 10 12 14 17 23 27 33 39 42 48 51 54 52 49 64 72 76 74 75 73 78 78 80 82 73 62 50 46 44 44 39 34 30 31 27 23 25 20 18 18 12 10
19 20 21 23 24 25 26 30 35 40 43 47 48 36 40 50 60 62 62 66 70 72 74 73 72 53 43 43 42 41 38 36 33 30 28 32 36 24 16 14 6 2 4
45 44 44 45 46 48 51 53 53 53 51 45 35 28 32 39 54 49 60 68 71 68 65 52 44 39 38 36 35 34 31 29 28 27 27 31 34 24 11 8 7 3 0
62 62 65 67 68 70 70 67 58 51 41 34 26 23 23 31 34 46 62 68 62 50 42 36 32 26 23 20 20 20 20 13 11 14 20 24 22 15 12 7 3 1 3
64 67 71 72 74 69 69 71 65 51 46 47 36 27 27 29 34 36 36 39 37 33 31 22 15 14 8 4 2 5 16 18 19 20 17 19 19 14 11 6 1 5 7
66 62 66 77 82 67 63 59 34 39 48 45 35 29 29 31 33 33 33 30 27 23 23 26 23 18 17 19 19 24 25 23 22 20 17 15 13 10 7 4 7 10 12
58 57 54 63 72 63 49 47 46 53 61 35 24 26 31 32 30 27 25 23 26 33 32 27 23 21 19 20 19 20 19 18 16 13 10 7 6 5 7 10 13 14 17
38 43 42 41 45 56 54 53 56 54 42 34 30 31 27 24 23 20 24 30 37 37 34 30 25 22 18 15 11 9 8 7 6 4 3 2 5 9 11 15 16 19 18
29 32 36 33 32 38 36 38 34 31 32 32 28 23 22 20 21 27 33 40 40 37 31 26 21 16 14 9 5 3 1 4 4 4 6 7 10 12 15 16 13 5 7
27 25 23 22 28 28 29 29 27 27 24 22 20 19 19 23 26 31 38 38 36 32 26 23 18 14 11 8 8 5 5 6 7 9 10 13 15 15 13 7 8 12 15
21 21 17 18 21 22 20 19 17 16 17 17 18 20 22 24 27 34 37 35 33 30 26 20 15 13 9 8 8 9 9 10 13 16 16 17 16 13 11 13 14 13 12
17 16 15 14 14 13 11 10 11 14 16 19 18 18 20 25 34 36 37 32 31 28 22 20 18 12 9 11 12 13 14 16 16 15 16 14 12 12 13 13 14 15 16
9 10 9 8 7 8 11 12 12 15 15 13 16 19 23 30 35 37 33 31 28 24 21 18 17 15 14 14 16 17 18 19 17 13 10 11 13 15 16 18 21 24 27
Wind_Direction
245 246 246 246 246 247 246 246 247 246 245 246 246 242 236 239 235 242 247 245 245 255 251 262 270 274 284 292 296 299 302 301 303 303 307 315 317 317 311 311 314 314 292
244 244 245 245 245 245 245 244 244 245 245 245 244 244 240 231 235 241 245 243 249 256 265 263 268 275 277 289 291 297 299 298 300 300 304 313 314 312 307 309 309 313 279
246 245 245 244 244 243 244 244 243 244 245 247 246 243 241 233 233 242 247 243 245 254 258 263 273 275 280 285 290 293 293 296 295 297 307 312 312 306 304 305 308 311 273
248 247 246 245 243 244 243 244 243 243 245 244 245 245 243 241 235 238 245 246 248 254 262 264 268 272 278 280 288 288 290 291 292 301 306 309 307 301 300 301 302 306 279
249 248 245 245 244 243 243 243 245 245 244 243 243 243 244 243 242 241 242 245 247 255 259 262 261 274 274 283 285 288 290 288 292 300 305 305 301 296 296 297 301 298 287
246 248 248 243 243 242 242 241 241 244 244 242 242 242 243 244 243 243 244 244 248 252 256 259 263 268 269 279 282 284 286 291 296 301 304 302 298 296 294 295 297 292 286
248 245 247 248 244 243 243 243 241 239 239 243 242 243 243 244 246 246 247 248 249 252 258 258 263 270 270 276 279 286 291 296 301 301 300 299 293 294 296 299 299 289 285
254 252 249 250 250 246 244 240 238 240 236 237 242 243 244 244 245 249 252 252 250 253 257 259 263 265 268 273 275 284 291 297 299 298 298 288 290 291 299 302 296 289 271
249 247 245 244 245 242 240 236 235 236 234 231 232 235 241 243 245 248 251 246 242 249 253 257 259 262 269 273 275 289 294 297 294 293 284 284 287 291 301 301 285 282 265
248 251 249 250 248 244 240 238 234 232 230 229 226 224 234 240 243 246 252 242 241 251 259 258 262 268 273 277 281 288 293 291 289 280 277 283 285 287 297 294 281 273 277
252 251 249 247 245 241 237 233 229 230 225 223 222 221 224 229 235 242 248 245 246 248 257 262 266 270 272 278 286 291 288 284 278 277 281 282 279 283 286 292 278 275 274
246 245 242 239 236 232 226 220 217 217 220 215 217 215 220 220 230 233 236 238 242 250 254 259 266 272 275 282 286 283 278 276 275 279 277 274 277 276 287 293 287 279 277
231 230 231 227 221 214 213 207 207 208 202 208 202 209 213 216 218 224 234 235 244 252 255 259 265 272 282 282 277 274 273 276 278 267 256 261 269 276 284 284 296 293 287
174 175 186 183 190 196 196 198 195 190 188 188 194 202 212 215 219 227 233 241 249 251 257 263 268 273 278 269 269 271 275 274 271 259 247 242 257 274 268 289 293 278 286
115 122 127 134 140 143 146 151 156 161 167 173 183 195 194 206 219 230 235 241 246 253 257 268 274 266 264 266 272 274 270 268 262 253 242 233 234 248 266 284 254 158 111
105 109 113 116 120 124 128 133 135 138 143 142 142 157 191 208 216 220 232 239 251 251 265 262 255 259 267 270 267 266 264 262 261 254 237 223 230 243 241 193 169 164 198
112 114 115 117 117 118 120 117 108 106 101 103 123 171 190 196 211 228 236 241 250 247 244 249 260 261 258 252 256 259 258 250 219 200 191 200 219 207 171 172 157 66 316
109 113 115 112 108 106 105 103 99 99 103 123 180 194 202 209 211 216 218 222 230 237 246 239 203 181 161 114 141 174 151 136 130 128 142 155 158 156 159 159 208 296 311
113 116 118 115 115 113 112 111 92 114 154 185 198 208 202 206 208 218 223 230 233 223 180 163 156 140 119 102 102 105 106 110 115 122 132 140 152 170 189 236 290 304 305
115 116 122 122 123 118 118 128 148 158 179 192 196 210 215 218 226 230 225 209 183 162 160 157 150 142 127 112 103 100 101 104 109 118 127 151 187 223 255 269 281 293 304
108 109 118 126 128 132 141 152 162 172 185 203 218 218 218 229 231 214 184 170 163 163 159 154 149 142 135 125 117 104 98 99 107 127 156 224 253 262 279 292 291 290 301
116 112 129 139 137 140 142 156 173 190 204 213 218 221 227 230 200 179 174 168 169 169 169 169 166 163 166 169 171 147 193 290 289 262 264 302 297 292 296 300 304 305 304
109 109 99 130 150 156 167 179 192 200 205 216 223 225 211 188 180 177 172 171 173 175 178 183 185 188 194 201 206 229 286 287 279 283 273 285 289 292 296 286 279 287 292
134 141 147 149 165 173 177 185 197 209 213 211 204 191 185 183 179 175 176 177 178 181 183 184 186 190 204 217 248 265 266 269 276 273 275 281 285 283 274 285 293 290 298
146 146 151 164 173 181 187 196 203 203 195 183 180 180 181 182 179 178 179 182 186 191 195 197 201 221 239 256 257 263 268 280 289 280 277 274 277 287 290 291 282 285 297
125 131 139 148 176 186 179 172 175 173 164 172 178 178 177 177 180 183 183 189 196 199 207 216 224 236 249 265 271 275 279 289 291 281 261 273 283 288 285 291 289 285 286
Height
10568 10578 10589 10601 10612 10622 10634 10645 10656 10666 10676 10685 10696 10708 10722 10730 10735 10740 10744 10744 10744 10746 10750 10754 10754 10754 10753 10746 10745 10742 10736 10729 10724 10719 10711 10705 10696 10687 10678 10670 10664 10658 10652
10544 10552 10562 10575 10587 10598 10609 10621 10632 10644 10653 10664 10675 10688 10704 10714 10716 10724 10731 10731 10730 10735 10736 10742 10740 10742 10740 10738 10735 10731 10727 10720 10716 10710 10701 10694 10686 10677 10669 10663 10658 10653 10647
10519 10524 10535 10549 10560 10573 10583 10595 10608 10621 10633 10645 10656 10667 10680 10692 10700 10705 10713 10716 10719 10724 10723 10728 10728 10725 10728 10726 10724 10722 10715 10712 10706 10702 10695 10685 10677 10666 10661 10655 10651 10648 10643
10495 10498 10509 10520 10534 10543 10559 10570 10583 10598 10611 10624 10636 10646 10660 10671 10681 10691 10695 10700 10705 10714 10713 10721 10723 10719 10716 10714 10714 10709 10707 10702 10697 10692 10686 10675 10668 10658 10652 10648 10644 10641 10638
10468 10469 10480 10492 10504 10516 10530 10545 10557 10574 10590 10603 10616 10628 10639 10651 10661 10671 10677 10682 10693 10703 10701 10710 10714 10711 10707 10701 10702 10698 10697 10691 10685 10681 10672 10663 10659 10651 10645 10641 10637 10635 10631
10437 10442 10447 10462 10471 10486 10499 10516 10534 10547 10562 10580 10595 10607 10619 10632 10645 10654 10658 10669 10682 10689 10692 10699 10699 10696 10694 10691 10691 10687 10683 10680 10673 10667 10659 10651 10647 10642 10636 10632 10630 10627 10625
10410 10420 10424 10431 10446 10460 10474 10491 10509 10523 10539 10558 10574 10588 10601 10614 10626 10635 10641 10657 10670 10675 10680 10684 10685 10685 10681 10680 10679 10673 10671 10666 10661 10655 10647 10641 10638 10634 10629 10625 10622 10620 10619
10390 10397 10405 10412 10422 10436 10446 10467 10482 10492 10518 10535 10552 10568 10583 10598 10612 10623 10632 10644 10653 10662 10666 10671 10674 10670 10670 10668 10666 10664 10658 10653 10649 10641 10635 10632 10630 10626 10622 10619 10617 10615 10613
10370 10374 10378 10384 10391 10405 10416 10437 10450 10466 10488 10513 10534 10552 10565 10581 10599 10613 10622 10631 10639 10647 10652 10657 10660 10655 10655 10656 10653 10652 10645 10642 10635 10629 10626 10624 10623 10620 10617 10613 10611 10610 10609
10355 10360 10366 10369 10377 10386 10398 10412 10428 10444 10467 10488 10514 10537 10550 10570 10587 10600 10610 10618 10628 10636 10641 10642 10642 10641 10641 10641 10640 10639 10632 10628 10623 10619 10617 10616 10615 10614 10611 10608 10606 10605 10604
10345 10348 10353 10358 10364 10372 10381 10392 10409 10429 10449 10471 10494 10514 10534 10562 10572 10592 10600 10607 10616 10623 10625 10628 10628 10629 10629 10629 10627 10625 10620 10617 10615 10610 10610 10610 10607 10607 10605 10603 10601 10600 10600
10335 10339 10343 10347 10355 10363 10370 10380 10393 10410 10432 10453 10475 10502 10523 10547 10564 10580 10591 10599 10606 10609 10611 10614 10616 10615 10618 10619 10614 10611 10608 10607 10606 10603 10600 10601 10601 10600 10600 10599 10597 10595 10595
10330 10333 10338 10343 10349 10357 10363 10372 10385 10402 10424 10448 10474 10497 10513 10537 10558 10571 10581 10589 10594 10597 10599 10605 10605 10606 10607 10604 10602 10600 10599 10596 10596 10594 10594 10595 10594 10595 10595 10594 10594 10592 10592
10329 10332 10337 10342 10348 10355 10363 10375 10389 10406 10428 10451 10474 10494 10513 10534 10550 10562 10573 10578 10582 10584 10589 10594 10596 10598 10595 10593 10592 10590 10587 10585 10584 10586 10587 10589 10589 10588 10592 10592 10591 10590 10589
10330 10334 10337 10342 10350 10358 10368 10381 10398 10417 10435 10458 10480 10497 10512 10530 10544 10554 10562 10568 10572 10577 10579 10584 10588 10586 10586 10584 10582 10578 10576 10574 10574 10575 10577 10581 10581 10585 10589 10589 10589 10589 10588
10339 10342 10349 10355 10362 10372 10383 10395 10408 10423 10443 10462 10479 10498 10513 10528 10541 10549 10554 10561 10565 10569 10576 10577 10577 10578 10577 10573 10570 10567 10564 10564 10564 10565 10568 10574 10579 10585 10587 10588 10588 10588 10588
10357 10365 10369 10376 10383 10394 10399 10411 10426 10439 10453 10465 10488 10507 10519 10528 10536 10543 10551 10554 10559 10565 10568 10570 10571 10569 10567 10565 10561 10558 10557 10557 10557 10559 10565 10572 10579 10584 10585 10587 10587 10587 10587
10382 10388 10388 10395 10403 10411 10419 10426 10437 10451 10463 10488 10518 10514 10521 10527 10531 10536 10542 10549 10554 10558 10562 10563 10564 10565 10565 10562 10557 10555 10555 10558 10560 10564 10569 10574 10580 10582 10585 10586 10586 10586 10584
10396 10404 10403 10405 10410 10420 10430 10440 10449 10466 10485 10493 10506 10513 10521 10527 10532 10537 10542 10545 10549 10552 10556 10560 10563 10564 10564 10562 10562 10561 10562 10565 10567 10570 10574 10577 10580 10582 10583 10583 10583 10582 10581
10410 10419 10422 10425 10426 10429 10441 10453 10466 10481 10491 10499 10509 10517 10523 10527 10530 10532 10535 10539 10543 10549 10555 10559 10562 10563 10563 10564 10566 10567 10569 10570 10572 10574 10577 10579 10580 10580 10580 10580 10579 10578 10577
10424 10427 10432 10440 10445 10449 10458 10468 10478 10488 10498 10507 10512 10515 10519 10521 10525 10528 10531 10536 10543 10549 10554 10558 10561 10562 10564 10566 10568 10570 10572 10573 10574 10575 10576 10577 10577 10577 10578 10577 10575 10574 10572
10436 10444 10449 10448 10458 10468 10475 10483 10490 10495 10501 10507 10510 10512 10514 10517 10521 10525 10530 10537 10543 10549 10554 10558 10561 10563 10565 10567 10569 10571 10572 10573 10574 10574 10574 10575 10575 10574 10573 10572 10571 10571 10570
10452 10455 10458 10464 10470 10476 10481 10487 10492 10497 10500 10502 10505 10508 10511 10516 10520 10526 10532 10538 10545 10550 10554 10557 10560 10562 10564 10567 10569 10571 10571 10571 10571 10571 10571 10571 10571 10570 10570 10569 10569 10568 10567
10462 10464 10468 10472 10474 10478 10483 10487 10490 10494 10496 10500 10503 10507 10511 10515 10520 10526 10533 10539 10544 10548 10551 10555 10559 10561 10564 10566 10567 10568 10568 10567 10567 10567 10567 10567 10567 10567 10567 10566 10566 10564 10563
10469 10471 10475 10478 10481 10484 10486 10489 10491 10494 10497 10500 10502 10506 10510 10514 10519 10526 10532 10538 10542 10547 10551 10554 10557 10559 10561 10563 10563 10563 10563 10563 10563 10563 10563 10563 10563 10563 10563 10562 10561 10559 10558
10473 10475 10476 10478 10480 10483 10485 10487 10489 10492 10495 10498 10501 10504 10509 10514 10520 10526 10532 10538 10542 10546 10550 10552 10555 10557 10558 10559 10559 10559 10559 10558 10559 10559 10560 10560 10560 10559 10558 10557 10555 10553 10550